Dewpoint
-16 -16 -15 -15 -15 -14 -14 -14 -14 -14 -13 -13 -13 -13 -13 -13 -13 -13 -13 -13 -13 -13 -13 -13 -13 -13 -13 -13 -13 -13 -13 -13 -13 -13 -14 -13 -14 -14 -14 -14 -14 -14 -14 -15 -15 -14 -14 -13 -12 -11 -10 -10
-17 -16 -16 -14 -15 -14 -14 -14 -13 -13 -13 -13 -13 -12 -13 -12 -13 -12 -12 -12 -12 -13 -12 -12 -12 -12 -12 -12 -12 -12 -12 -12 -13 -13 -13 -13 -13 -13 -13 -13 -13 -14 -14 -14 -15 -15 -14 -14 -14 -13 -11 -11
-17 -15 -15 -14 -14 -14 -13 -14 -13 -13 -13 -13 -13 -12 -12 -12 -12 -12 -12 -12 -11 -11 -11 -11 -11 -11 -11 -11 -11 -11 -12 -12 -12 -12 -13 -13 -13 -13 -12 -13 -13 -13 -14 -14 -14 -14 -14 -14 -14 -14 -13 -12
-15 -15 -15 -14 -14 -14 -13 -13 -13 -13 -13 -13 -12 -12 -12 -12 -12 -11 -11 -11 -11 -10 -10 -10 -11 -11 -11 -11 -12 -12 -12 -12 -12 -13 -13 -13 -13 -13 -13 -13 -13 -13 -13 -13 -14 -14 -14 -14 -15 -15 -14 -13
-9 -14 -14 -13 -13 -13 -13 -13 -13 -13 -12 -12 -12 -12 -12 -12 -11 -9 -9 -10 -11 -11 -11 -11 -12 -12 -12 -12 -13 -13 -13 -13 -13 -14 -14 -15 -15 -15 -15 -15 -15 -15 -14 -13 -13 -13 -13 -14 -14 -14 -14 -14
-9 -15 -13 -13 -13 -13 -13 -13 -12 -12 -12 -12 -12 -12 -12 -12 -9 -7 -9 -10 -11 -11 -11 -12 -12 -13 -13 -13 -14 -14 -15 -15 -16 -16 -17 -18 -18 -18 -18 -18 -17 -17 -17 -16 -15 -14 -13 -13 -13 -13 -14 -14
-14 -14 -12 -12 -13 -13 -13 -13 -13 -12 -12 -12 -12 -12 -12 -11 -8 -8 -11 -10 -11 -11 -11 -11 -12 -13 -13 -14 -15 -16 -17 -18 -19 -19 -20 -20 -20 -20 -20 -20 -20 -19 -19 -19 -19 -17 -16 -15 -14 -13 -13 -13
-12 -11 -12 -12 -13 -13 -12 -12 -12 -12 -12 -12 -12 -12 -12 -11 -9 -11 -11 -10 -11 -11 -10 -11 -12 -13 -14 -15 -16 -17 -18 -19 -20 -19 -20 -20 -20 -20 -20 -20 -20 -20 -19 -20 -19 -19 -19 -18 -17 -15 -14 -13
-12 -12 -13 -13 -13 -13 -13 -13 -12 -12 -12 -12 -12 -12 -12 -12 -11 -12 -11 -10 -11 -10 -10 -11 -11 -12 -12 -14 -16 -18 -19 -19 -19 -19 -19 -19 -20 -19 -19 -20 -19 -20 -19 -19 -19 -19 -20 -19 -19 -18 -17 -15
-13 -14 -14 -13 -14 -13 -13 -12 -12 -11 -11 -11 -12 -12 -12 -11 -10 -10 -9 -9 -10 -10 -10 -11 -11 -11 -13 -16 -17 -17 -18 -18 -18 -19 -19 -19 -19 -20 -20 -20 -20 -20 -20 -20 -20 -20 -20 -20 -20 -20 -19 -19
-15 -16 -14 -14 -14 -13 -12 -11 -11 -11 -11 -11 -12 -11 -11 -11 -9 -8 -8 -8 -8 -9 -10 -11 -12 -14 -15 -17 -17 -17 -18 -19 -20 -19 -20 -20 -20 -21 -21 -22 -22 -23 -23 -23 -24 -24 -24 -23 -23 -22 -21 -20
-15 -14 -14 -13 -13 -12 -12 -11 -10 -10 -11 -10 -10 -11 -11 -11 -9 -8 -8 -8 -9 -10 -11 -13 -15 -18 -17 -17 -17 -17 -18 -18 -19 -19 -19 -20 -20 -20 -21 -21 -21 -22 -23 -23 -24 -25 -25 -26 -27 -26 -25 -24
-13 -13 -13 -12 -12 -12 -11 -11 -11 -11 -11 -9 -9 -11 -12 -12 -11 -10 -9 -9 -10 -11 -12 -15 -15 -16 -15 -15 -16 -15 -16 -16 -16 -18 -18 -18 -18 -18 -18 -18 -18 -19 -20 -21 -22 -23 -24 -25 -25 -26 -26 -27
-11 -11 -11 -11 -11 -12 -12 -12 -13 -12 -11 -10 -11 -14 -15 -15 -14 -14 -12 -11 -13 -13 -13 -14 -12 -12 -12 -12 -13 -11 -12 -13 -15 -17 -17 -17 -17 -17 -16 -16 -17 -17 -18 -18 -19 -20 -21 -23 -23 -24 -25 -25
-10 -10 -11 -13 -14 -15 -16 -15 -14 -14 -13 -13 -16 -18 -18 -18 -18 -18 -16 -16 -18 -17 -17 -15 -12 -13 -12 -11 -11 -9 -10 -12 -16 -18 -18 -18 -18 -19 -18 -18 -18 -17 -17 -17 -18 -18 -19 -21 -22 -23 -24 -24
-12 -13 -15 -16 -17 -18 -19 -18 -17 -17 -17 -17 -17 -18 -18 -17 -17 -16 -16 -16 -16 -16 -16 -16 -15 -15 -15 -13 -10 -10 -11 -14 -18 -18 -18 -17 -16 -17 -17 -18 -18 -16 -15 -15 -16 -15 -16 -18 -20 -22 -23 -23
-16 -16 -17 -17 -17 -17 -17 -17 -17 -16 -16 -15 -15 -15 -15 -14 -14 -13 -13 -13 -13 -13 -13 -13 -14 -14 -14 -14 -11 -12 -15 -17 -18 -17 -16 -15 -15 -14 -12 -12 -13 -12 -13 -13 -14 -14 -14 -15 -17 -19 -20 -22
-15 -15 -15 -15 -15 -15 -14 -14 -14 -14 -13 -13 -13 -12 -12 -12 -12 -12 -12 -12 -12 -12 -12 -12 -13 -13 -13 -13 -13 -14 -16 -16 -16 -17 -17 -15 -15 -13 -11 -11 -10 -10 -11 -12 -12 -12 -13 -13 -14 -15 -16 -18
-14 -14 -14 -14 -13 -13 -13 -13 -12 -12 -12 -12 -11 -11 -11 -11 -11 -11 -11 -12 -12 -12 -12 -13 -13 -13 -14 -13 -14 -14 -14 -15 -16 -17 -17 -15 -14 -13 -12 -12 -11 -10 -10 -11 -11 -11 -11 -12 -12 -14 -14 -16
-14 -14 -13 -13 -13 -13 -12 -12 -12 -12 -11 -11 -10 -10 -10 -11 -11 -12 -13 -13 -13 -13 -14 -14 -15 -15 -15 -15 -15 -15 -15 -16 -16 -16 -16 -15 -15 -14 -13 -11 -11 -11 -11 -11 -11 -10 -10 -11 -12 -13 -14 -14
-14 -14 -13 -13 -13 -12 -12 -12 -11 -11 -10 -10 -10 -10 -10 -11 -13 -14 -15 -15 -15 -16 -17 -18 -18 -18 -18 -18 -18 -18 -18 -18 -17 -17 -16 -15 -14 -13 -13 -12 -11 -10 -11 -11 -10 -10 -10 -11 -12 -13 -13 -13
-14 -13 -13 -13 -12 -12 -11 -11 -10 -10 -10 -9 -9 -10 -10 -12 -14 -16 -17 -17 -18 -19 -20 -21 -22 -21 -21 -21 -21 -20 -20 -20 -18 -17 -15 -15 -15 -14 -14 -13 -11 -10 -10 -11 -11 -11 -11 -12 -13 -14 -14 -13
-13 -13 -12 -12 -11 -11 -10 -10 -10 -10 -9 -9 -10 -10 -12 -14 -17 -18 -19 -20 -21 -22 -23 -24 -24 -24 -24 -24 -23 -23 -23 -22 -20 -19 -18 -18 -18 -17 -15 -13 -13 -12 -11 -11 -11 -12 -13 -15 -15 -15 -14 -13
-12 -11 -11 -10 -10 -9 -9 -10 -10 -10 -10 -10 -11 -13 -15 -17 -20 -21 -22 -24 -24 -25 -26 -26 -26 -26 -27 -27 -27 -26 -26 -25 -25 -24 -24 -24 -21 -19 -17 -15 -13 -12 -10 -10 -10 -12 -14 -15 -13 -11 -11 -12
-10 -9 -9 -9 -9 -9 -9 -10 -11 -11 -12 -13 -14 -16 -19 -21 -22 -23 -25 -27 -28 -29 -29 -29 -30 -30 -30 -30 -29 -30 -30 -29 -30 -30 -28 -27 -23 -19 -15 -13 -11 -11 -10 -10 -11 -12 -12 -12 -11 -12 -12 -12
-8 -9 -9 -9 -10 -10 -11 -12 -13 -14 -14 -16 -17 -20 -22 -23 -25 -26 -28 -30 -31 -32 -33 -33 -34 -33 -34 -33 -33 -33 -33 -32 -33 -32 -30 -27 -23 -20 -16 -14 -14 -13 -12 -11 -10 -11 -11 -12 -13 -14 -13 -12
-9 -9 -10 -10 -11 -12 -13 -14 -15 -16 -17 -19 -20 -22 -24 -26 -27 -28 -30 -32 -33 -34 -36 -36 -35 -35 -35 -35 -35 -35 -34 -35 -34 -32 -30 -27 -22 -21 -20 -18 -16 -14 -12 -10 -10 -10 -11 -12 -13 -13 -13 -13
-9 -10 -10 -11 -12 -13 -14 -16 -17 -19 -20 -21 -23 -24 -26 -27 -28 -30 -31 -32 -34 -35 -36 -37 -37 -37 -36 -37 -37 -37 -37 -36 -36 -34 -29 -25 -23 -22 -21 -18 -17 -15 -13 -11 -10 -10 -11 -12 -13 -13 -14 -14
-10 -11 -11 -12 -13 -14 -15 -17 -19 -21 -23 -25 -27 -28 -29 -30 -31 -32 -33 -34 -36 -37 -38 -38 -38 -38 -38 -39 -38 -38 -39 -38 -38 -37 -30 -26 -27 -29 -25 -21 -20 -20 -18 -14 -12 -11 -11 -11 -12 -13 -13 -13
-12 -13 -14 -14 -15 -17 -19 -21 -24 -26 -28 -29 -31 -32 -33 -34 -35 -35 -35 -36 -37 -38 -39 -39 -39 -40 -39 -40 -40 -39 -40 -40 -39 -38 -34 -32 -35 -38 -33 -28 -25 -22 -19 -16 -13 -11 -11 -11 -11 -11 -12 -12
-13 -14 -15 -16 -18 -21 -24 -26 -28 -30 -32 -34 -34 -36 -36 -35 -36 -37 -37 -37 -38 -38 -38 -39 -39 -40 -40 -40 -40 -40 -40 -40 -40 -39 -38 -39 -40 -40 -38 -34 -27 -20 -17 -16 -14 -12 -11 -11 -11 -11 -10 -10
Wind_Speed
11 10 10 9 9 8 7 6 5 4 4 4 4 5 5 5 6 6 7 7 7 6 6 7 7 8 9 9 10 10 10 11 12 12 13 13 13 14 15 15 15 15 15 15 15 15 15 14 13 11 10 10
10 10 10 10 9 8 7 6 5 5 5 5 5 6 6 7 7 8 8 9 9 8 7 7 7 8 10 11 11 11 11 12 13 14 14 15 14 14 15 15 15 16 16 16 16 16 15 15 15 13 11 10
10 11 11 10 9 9 8 7 7 6 6 6 6 7 7 8 9 9 10 10 10 9 8 8 8 8 10 11 12 11 11 12 14 15 15 16 15 15 15 15 15 15 16 16 16 16 16 16 16 15 14 12
9 11 11 10 10 9 8 8 7 7 7 7 7 7 8 9 10 11 11 11 12 12 11 10 9 9 10 11 12 11 11 11 13 14 15 16 16 15 15 15 16 15 16 16 17 16 16 17 17 16 15 15
9 11 10 10 9 9 9 9 8 8 8 8 8 8 8 9 10 10 12 13 13 14 14 12 11 10 9 10 11 11 11 11 12 13 14 15 15 15 15 15 16 16 15 15 16 17 16 17 18 18 17 17
10 10 10 9 9 9 9 9 9 9 9 9 9 9 10 9 8 9 11 14 15 15 16 14 13 12 11 11 11 12 12 12 12 13 13 14 15 15 15 16 16 17 17 16 15 16 16 16 18 18 18 18
10 8 8 8 9 9 9 9 9 9 9 9 10 11 11 9 8 11 13 15 16 15 15 15 14 14 14 13 12 13 14 14 13 13 14 13 14 15 15 16 16 17 18 19 18 17 17 17 17 18 18 19
8 8 9 8 9 8 8 9 9 10 10 11 11 12 12 11 12 14 13 16 17 15 15 15 16 17 16 16 15 14 15 16 15 15 16 15 15 16 16 16 16 16 17 18 19 19 18 18 18 17 18 19
8 10 9 8 9 9 9 10 10 11 12 12 13 12 12 13 14 14 12 15 16 14 14 15 16 16 16 16 17 17 16 16 17 17 18 18 17 17 17 17 17 17 17 18 18 19 19 19 19 19 19 19
9 10 8 10 10 9 10 10 10 10 11 13 13 13 13 12 12 12 10 13 15 14 14 13 13 13 13 14 16 17 17 16 17 17 18 18 19 18 19 18 18 18 17 18 18 19 20 20 20 20 20 20
10 10 10 11 10 9 9 9 9 9 10 12 13 12 12 9 8 8 7 9 12 12 12 11 11 11 13 14 14 15 17 18 17 17 18 19 19 19 20 20 20 20 19 19 19 19 20 20 20 20 21 21
9 10 10 10 9 10 9 8 8 9 9 9 10 11 10 8 5 5 6 7 9 10 10 11 13 13 13 14 15 16 16 18 18 17 18 19 20 20 21 22 22 23 22 22 21 21 20 20 21 21 21 21
9 9 9 8 9 9 8 8 7 7 5 3 6 10 10 7 6 5 5 7 8 9 11 13 14 15 14 14 15 15 16 16 17 18 18 19 20 20 21 21 22 23 24 24 24 24 23 22 21 22 22 22
7 7 8 8 7 7 5 5 4 3 2 2 5 8 8 7 7 6 6 8 9 10 12 12 13 13 12 13 12 12 14 14 17 18 19 19 20 20 21 22 22 23 24 24 25 25 25 23 22 22 22 23
7 7 6 6 5 4 3 2 1 1 1 3 5 6 7 7 7 8 8 10 11 12 13 12 11 12 12 12 10 9 11 15 18 20 20 21 22 22 22 22 23 23 24 24 24 24 26 26 24 23 23 23
7 5 4 2 1 0 1 2 2 3 3 5 7 8 8 9 10 10 11 12 13 14 14 14 14 15 15 13 11 11 14 19 21 22 22 22 23 25 25 25 24 23 23 23 23 23 25 27 26 26 25 24
6 5 4 4 4 4 5 5 5 6 7 8 10 11 11 12 13 14 15 15 16 17 17 18 18 18 18 16 15 17 20 23 23 23 22 22 23 24 22 22 21 21 21 22 22 22 23 26 28 28 27 27
7 6 5 5 5 5 5 6 7 8 9 10 12 15 16 16 17 18 19 19 20 20 20 20 21 20 20 20 21 23 23 24 24 24 24 24 24 21 19 19 18 18 20 21 22 21 22 24 26 27 28 29
7 6 4 4 4 4 5 6 7 9 10 12 14 16 19 20 21 23 23 23 23 22 23 23 23 23 23 24 25 26 25 26 26 25 25 24 23 23 22 23 21 19 19 21 21 21 22 22 24 27 29 30
6 5 4 3 4 5 6 7 8 10 12 14 17 18 22 24 25 27 26 26 26 25 25 25 25 25 25 28 28 27 27 27 26 25 25 24 24 25 25 24 24 23 23 24 23 20 20 22 26 30 31 31
5 4 4 4 6 7 8 10 11 13 16 17 21 23 25 28 28 29 28 28 27 27 26 26 25 25 27 28 28 27 27 27 26 25 25 25 24 24 24 24 25 25 24 23 22 20 22 26 30 33 32 31
3 3 4 6 9 11 13 15 17 18 20 21 24 27 29 30 30 30 29 28 27 26 25 24 23 24 25 27 26 25 26 25 24 23 23 24 24 24 25 25 25 25 25 26 27 28 29 31 34 35 32 30
5 6 8 10 13 16 17 20 22 23 25 26 28 30 31 31 30 29 28 27 26 24 24 23 22 23 24 24 24 24 24 23 23 23 24 25 26 26 25 26 26 26 26 27 29 30 33 34 35 34 30 26
11 13 15 16 19 21 22 24 26 26 27 30 31 32 32 31 29 28 26 25 24 23 23 22 21 22 23 23 23 23 23 23 23 24 25 25 25 25 25 25 24 23 22 23 26 30 32 30 27 25 24 25
18 21 22 23 25 26 27 26 26 27 29 32 32 31 31 30 28 26 24 23 22 22 22 21 21 22 22 22 22 22 22 23 23 23 23 24 23 23 22 20 19 18 19 21 24 26 25 22 21 22 24 25
24 25 27 28 29 29 30 27 25 28 30 31 32 30 28 28 27 25 23 22 22 21 21 21 21 21 21 21 21 22 22 21 21 21 21 21 21 21 19 19 19 19 19 19 19 20 22 23 22 20 18 19
26 28 29 31 31 31 31 29 27 29 29 30 30 28 26 26 26 25 23 23 23 22 21 21 21 20 20 20 20 21 20 20 20 19 19 19 19 20 20 19 18 16 14 15 16 17 19 19 18 16 13 14
30 32 33 33 34 34 33 32 31 31 30 30 29 27 25 25 25 24 24 23 23 22 22 21 21 21 21 20 20 20 20 19 19 18 17 17 18 18 19 18 17 14 13 14 15 14 15 15 16 16 13 12
33 34 35 36 37 36 35 34 33 32 32 30 29 27 26 24 24 24 23 23 22 22 22 22 21 22 22 21 20 20 20 20 19 18 17 18 19 19 19 19 19 19 17 16 15 15 16 15 14 14 14 16
34 36 37 39 38 37 36 34 32 30 30 29 28 27 26 24 24 23 23 22 22 22 23 23 22 22 22 21 21 20 20 20 19 19 18 19 20 20 19 20 20 20 17 16 15 16 18 17 17 19 20 20
35 37 39 40 38 35 33 31 30 28 28 28 27 27 26 25 24 23 23 23 22 22 24 24 23 22 22 21 21 21 20 20 20 20 21 21 21 20 20 19 19 18 16 16 15 14 17 19 20 22 22 20
Wind_Direction
165 165 163 165 165 168 171 177 187 200 220 231 242 252 261 269 274 277 280 281 283 286 288 292 293 295 299 303 317 330 332 330 324 321 324 327 328 327 328 330 329 328 328 328 329 330 330 331 333 336 336 330
172 173 173 172 173 175 181 187 196 210 226 241 252 260 267 273 278 281 285 286 288 289 287 291 294 297 301 306 317 327 328 326 321 321 325 327 329 330 328 327 326 324 322 323 323 324 324 323 323 325 326 326
177 178 179 177 179 183 191 198 207 220 230 245 257 265 273 278 284 287 288 291 293 295 298 300 302 303 304 309 317 326 327 324 321 321 327 328 330 333 330 327 326 324 321 320 320 320 319 317 316 316 318 318
182 181 183 183 186 191 198 206 214 223 232 243 254 266 277 281 288 294 295 299 302 307 313 313 312 313 312 315 319 325 327 324 323 324 328 329 330 332 330 327 325 324 323 321 320 318 317 315 311 312 313 312
188 186 186 188 192 199 204 211 216 224 235 242 251 260 269 284 297 303 303 305 311 317 319 319 320 321 320 320 321 324 325 324 323 324 327 327 327 327 326 325 322 321 322 320 319 318 317 315 311 311 311 308
193 189 190 196 201 209 214 219 224 234 243 251 262 268 277 295 298 290 294 300 311 317 316 317 320 325 326 324 324 324 323 324 326 325 325 325 323 323 323 322 322 322 321 319 318 316 315 313 311 311 309 306
196 196 202 210 217 224 231 236 240 249 257 265 272 277 287 293 278 284 294 296 306 313 311 314 318 325 326 323 325 326 324 323 327 325 323 325 321 321 321 322 323 322 321 320 320 317 316 313 311 309 306 304
199 208 213 224 232 238 250 256 258 263 266 267 271 275 282 279 275 290 298 296 305 310 311 316 319 325 327 326 325 327 328 324 326 325 323 323 321 321 322 322 322 319 319 318 318 318 316 314 311 308 304 301
213 218 221 237 242 249 258 264 267 270 270 267 270 272 275 277 282 293 296 294 302 307 310 317 321 326 328 326 324 325 329 328 327 326 325 324 324 324 322 320 318 316 315 314 314 313 312 312 310 308 305 301
223 224 231 244 246 255 261 264 267 268 271 270 273 274 277 282 289 297 298 296 300 303 309 316 320 322 319 321 323 323 327 326 324 323 323 322 321 320 317 315 313 311 311 310 310 309 308 308 307 305 303 300
232 235 242 249 250 254 255 259 262 262 267 274 278 278 278 283 291 299 298 297 304 308 312 315 314 314 316 320 322 321 322 321 321 322 321 319 317 316 315 314 313 312 312 311 309 308 307 306 305 303 301 299
238 243 246 250 249 248 247 250 256 264 273 283 287 281 276 276 280 295 297 297 304 308 310 310 310 315 319 319 320 319 319 320 320 321 319 317 316 316 316 317 317 317 317 317 315 313 311 309 307 304 301 299
232 236 236 235 240 246 249 252 257 266 276 287 288 286 286 281 273 282 299 302 307 310 312 315 318 323 322 320 322 317 316 317 314 315 316 313 314 315 316 317 317 316 316 317 315 314 311 310 309 306 304 301
207 215 221 226 237 246 246 253 258 259 264 265 276 291 302 301 295 298 304 304 309 313 315 321 324 324 321 321 322 314 312 310 309 313 313 311 311 312 312 312 313 312 313 314 314 313 311 310 309 307 306 304
184 199 212 224 229 235 231 232 250 249 295 304 301 312 321 323 325 322 318 314 316 318 319 320 317 315 314 314 316 308 302 303 308 312 312 311 311 311 310 309 310 310 310 311 312 311 310 310 309 307 305 304
182 186 185 189 171 140 59 46 27 13 359 351 338 337 340 338 337 332 327 324 324 324 323 320 316 315 314 313 307 294 294 301 308 312 313 314 313 314 313 313 314 313 312 312 313 312 310 310 309 308 306 303
147 131 108 87 69 55 47 33 20 11 360 355 344 337 334 333 331 326 323 320 319 320 319 317 315 313 313 309 297 293 300 306 309 311 311 309 309 310 311 312 314 311 308 309 310 309 308 308 309 310 307 305
112 99 85 71 57 43 34 16 1 355 346 342 337 331 326 325 324 318 316 315 313 314 313 312 310 309 307 300 294 299 304 304 304 305 304 302 302 300 297 298 300 299 299 302 304 303 302 303 305 308 307 307
101 90 76 56 36 14 3 352 343 338 336 332 329 328 324 322 321 316 313 312 310 310 309 308 306 304 300 295 295 300 299 298 299 300 300 297 295 292 291 290 289 289 291 295 298 298 296 295 297 301 303 304
101 87 64 31 4 348 342 335 331 328 328 328 325 324 323 323 322 317 314 312 309 309 307 304 303 299 295 293 295 296 294 295 296 296 295 293 291 291 290 289 287 286 288 291 292 291 288 287 292 298 300 301
97 74 43 13 348 335 331 324 324 324 323 323 322 322 323 323 323 318 315 313 310 308 305 302 300 296 293 293 294 294 294 294 295 294 293 292 291 290 289 287 287 288 288 287 286 283 281 285 291 296 297 297
54 29 2 350 342 334 332 327 324 323 321 321 321 321 323 324 323 320 317 314 310 308 304 302 300 296 294 295 296 296 295 295 295 294 291 290 289 288 289 288 287 287 287 286 286 285 285 288 292 295 296 292
355 346 336 335 336 333 334 331 326 325 322 321 322 322 323 324 322 320 317 313 309 307 303 302 300 297 297 298 298 297 297 296 295 292 290 290 291 291 290 289 290 290 291 291 290 290 291 294 297 299 298 292
341 336 333 333 334 332 333 331 327 326 324 322 323 324 323 324 321 319 316 310 307 304 301 301 299 297 298 298 298 298 297 296 295 294 294 295 295 295 294 294 295 295 293 291 291 294 297 300 300 295 292 292
345 341 337 336 336 333 333 333 329 325 324 323 324 326 323 322 320 317 313 307 304 302 300 300 298 298 298 297 298 297 297 296 296 296 297 297 296 296 297 296 294 293 292 292 294 298 300 297 290 287 287 284
345 342 340 338 337 335 333 333 328 323 324 323 323 325 322 319 318 315 312 308 305 304 302 301 300 300 299 298 299 298 298 298 298 298 297 297 296 294 292 290 290 293 295 294 295 299 299 295 294 296 291 275
342 340 338 336 334 333 331 329 324 321 321 319 320 321 318 316 316 314 312 310 309 308 307 305 304 302 301 301 300 300 300 299 299 299 298 296 295 294 293 293 295 297 294 291 295 298 295 297 306 304 290 278
338 335 332 330 329 327 326 325 322 320 320 319 319 318 316 314 313 312 311 311 310 310 308 307 304 302 301 301 301 301 301 300 299 299 298 295 293 294 296 296 293 287 280 281 289 292 289 295 299 291 289 294
333 332 329 327 326 325 324 324 323 322 321 321 320 319 317 315 313 312 311 310 309 308 306 304 303 302 302 302 301 301 301 300 301 300 297 293 291 293 295 294 291 288 284 279 275 273 278 288 287 281 293 301
332 332 331 330 329 327 327 326 325 324 321 321 320 318 317 315 313 311 309 308 308 306 303 300 301 302 302 302 301 300 300 300 301 299 294 291 292 293 292 291 291 292 291 285 275 266 266 268 270 278 290 294
333 334 334 333 331 329 328 326 324 323 320 320 319 317 317 315 313 312 310 308 307 307 303 300 300 301 301 301 300 299 299 299 297 295 293 293 294 294 292 291 291 291 291 287 280 271 266 264 265 272 277 279
Height
1537 1538 1538 1539 1539 1539 1539 1539 1539 1539 1539 1539 1539 1539 1539 1539 1539 1539 1538 1538 1538 1538 1537 1537 1537 1536 1535 1534 1534 1533 1533 1533 1532 1531 1531 1531 1531 1531 1530 1530 1529 1529 1529 1528 1528 1528 1528 1527 1528 1528 1528 1528
1537 1538 1538 1538 1539 1539 1539 1539 1539 1539 1539 1539 1539 1539 1538 1538 1538 1538 1538 1537 1537 1537 1537 1537 1536 1535 1534 1533 1533 1533 1532 1532 1531 1530 1530 1530 1530 1530 1529 1529 1528 1528 1527 1527 1527 1527 1527 1526 1526 1526 1527 1527
1537 1538 1538 1538 1539 1539 1539 1539 1539 1539 1539 1539 1538 1538 1538 1538 1538 1537 1537 1537 1537 1537 1537 1536 1536 1535 1534 1533 1532 1532 1532 1531 1530 1529 1529 1529 1528 1528 1528 1527 1527 1526 1526 1526 1526 1526 1525 1525 1524 1524 1525 1525
1537 1538 1538 1538 1539 1539 1539 1539 1539 1539 1539 1539 1538 1538 1538 1538 1538 1537 1537 1537 1536 1536 1536 1536 1535 1535 1533 1532 1531 1531 1531 1530 1529 1528 1527 1527 1527 1526 1526 1525 1525 1525 1524 1524 1524 1524 1524 1524 1523 1523 1523 1523
1537 1538 1538 1538 1539 1539 1539 1539 1539 1539 1539 1539 1538 1538 1538 1538 1538 1538 1537 1536 1536 1535 1535 1535 1534 1533 1533 1531 1530 1529 1529 1529 1528 1527 1526 1526 1525 1525 1524 1524 1523 1523 1523 1523 1523 1522 1522 1522 1521 1521 1521 1521
1537 1538 1538 1538 1539 1539 1539 1539 1539 1539 1539 1539 1538 1538 1538 1539 1539 1538 1538 1536 1536 1535 1534 1533 1532 1531 1531 1530 1529 1528 1527 1527 1526 1526 1525 1525 1524 1524 1523 1523 1522 1521 1521 1521 1521 1521 1521 1520 1520 1519 1519 1519
1537 1538 1538 1539 1538 1539 1539 1539 1539 1539 1539 1539 1538 1538 1538 1539 1539 1538 1537 1536 1535 1535 1533 1531 1530 1530 1529 1528 1527 1526 1525 1525 1525 1524 1524 1523 1523 1522 1522 1521 1521 1520 1519 1519 1519 1519 1519 1519 1518 1518 1517 1517
1537 1538 1538 1538 1539 1539 1539 1539 1539 1539 1539 1538 1538 1538 1538 1538 1537 1537 1536 1535 1534 1533 1532 1530 1529 1528 1526 1525 1525 1524 1524 1523 1522 1522 1522 1521 1521 1521 1520 1520 1520 1520 1519 1518 1518 1517 1517 1517 1516 1516 1516 1515
1537 1537 1538 1538 1538 1538 1539 1538 1538 1538 1538 1537 1537 1537 1537 1537 1536 1536 1535 1534 1532 1532 1531 1530 1528 1527 1526 1524 1523 1523 1522 1522 1521 1520 1520 1519 1519 1519 1519 1519 1519 1519 1518 1517 1517 1516 1515 1515 1514 1514 1514 1514
1536 1537 1538 1537 1538 1538 1538 1538 1538 1538 1537 1536 1536 1536 1536 1536 1535 1534 1534 1533 1531 1531 1530 1529 1528 1527 1526 1524 1523 1522 1521 1521 1520 1520 1519 1519 1518 1518 1518 1518 1518 1517 1517 1516 1516 1515 1514 1513 1513 1512 1512 1512
1536 1537 1537 1537 1537 1537 1537 1537 1537 1537 1536 1536 1535 1535 1535 1535 1534 1534 1533 1532 1530 1530 1529 1527 1526 1526 1525 1523 1522 1521 1520 1520 1519 1519 1518 1518 1517 1517 1517 1516 1516 1515 1515 1514 1514 1513 1512 1512 1511 1511 1510 1510
1536 1536 1536 1536 1536 1536 1537 1537 1536 1536 1536 1535 1534 1533 1533 1533 1533 1533 1532 1531 1530 1528 1527 1526 1525 1524 1523 1522 1521 1521 1520 1519 1518 1518 1517 1517 1516 1516 1515 1514 1513 1512 1512 1511 1511 1510 1510 1510 1510 1509 1509 1508
1535 1535 1535 1535 1535 1536 1536 1536 1536 1535 1535 1535 1534 1532 1532 1532 1532 1531 1531 1529 1528 1527 1526 1525 1524 1523 1522 1521 1521 1520 1519 1518 1517 1517 1517 1516 1515 1515 1514 1513 1512 1511 1510 1510 1509 1508 1508 1508 1508 1507 1506 1506
1535 1535 1535 1535 1535 1535 1535 1535 1535 1535 1534 1534 1532 1532 1531 1531 1530 1529 1529 1528 1527 1526 1525 1524 1523 1522 1522 1521 1520 1519 1518 1518 1517 1516 1516 1515 1514 1514 1513 1512 1511 1510 1509 1508 1507 1506 1506 1506 1506 1505 1504 1503
1534 1534 1534 1534 1535 1535 1535 1534 1534 1534 1533 1533 1531 1531 1530 1529 1529 1528 1527 1526 1525 1525 1524 1523 1523 1522 1521 1520 1520 1519 1518 1517 1516 1515 1514 1514 1513 1512 1511 1511 1510 1509 1508 1507 1506 1505 1504 1503 1503 1503 1502 1501
1534 1534 1534 1534 1534 1534 1534 1534 1534 1533 1532 1532 1530 1529 1529 1528 1527 1527 1526 1525 1524 1523 1523 1522 1521 1521 1520 1519 1519 1518 1517 1515 1514 1513 1513 1512 1510 1510 1509 1509 1508 1507 1506 1505 1505 1504 1502 1501 1500 1500 1499 1499
1534 1534 1534 1534 1534 1534 1534 1534 1533 1533 1532 1531 1530 1529 1528 1527 1526 1525 1525 1524 1523 1522 1522 1521 1520 1519 1519 1518 1517 1516 1515 1513 1512 1512 1511 1510 1510 1509 1508 1507 1507 1506 1505 1504 1503 1502 1500 1499 1498 1497 1497 1497
1534 1534 1535 1534 1534 1534 1534 1533 1533 1532 1531 1531 1530 1528 1527 1526 1526 1524 1524 1523 1522 1521 1520 1520 1519 1518 1517 1515 1514 1513 1513 1512 1511 1510 1510 1509 1509 1508 1507 1507 1506 1505 1504 1503 1502 1500 1499 1498 1497 1496 1495 1495
1535 1535 1535 1535 1534 1534 1533 1533 1532 1532 1531 1530 1529 1528 1526 1525 1525 1523 1522 1521 1520 1520 1519 1518 1516 1516 1514 1512 1511 1511 1510 1509 1509 1509 1508 1507 1506 1506 1505 1505 1504 1504 1502 1501 1500 1499 1497 1496 1496 1495 1494 1493
1535 1535 1535 1534 1534 1533 1533 1532 1532 1531 1530 1529 1528 1527 1525 1524 1523 1521 1520 1519 1518 1518 1516 1515 1514 1513 1511 1509 1509 1509 1508 1507 1507 1506 1505 1505 1504 1503 1503 1502 1501 1501 1500 1499 1498 1497 1495 1494 1494 1493 1492 1491
1535 1535 1535 1534 1534 1533 1532 1531 1531 1530 1529 1528 1526 1525 1524 1522 1521 1519 1518 1517 1516 1515 1514 1512 1512 1510 1508 1507 1507 1506 1505 1505 1504 1503 1502 1501 1501 1500 1500 1499 1498 1498 1497 1496 1495 1494 1493 1492 1491 1491 1490 1489
1535 1535 1534 1534 1533 1532 1532 1531 1530 1529 1527 1526 1525 1523 1522 1521 1519 1517 1516 1515 1513 1512 1511 1510 1509 1507 1506 1505 1504 1503 1502 1502 1501 1500 1499 1498 1498 1498 1497 1496 1496 1495 1494 1493 1492 1491 1490 1489 1488 1488 1488 1487
1535 1534 1534 1533 1533 1532 1531 1530 1528 1527 1525 1524 1523 1521 1520 1519 1517 1515 1514 1512 1511 1510 1508 1507 1506 1505 1503 1502 1501 1501 1500 1499 1498 1497 1496 1495 1495 1495 1494 1494 1493 1492 1491 1490 1488 1487 1486 1485 1485 1484 1484 1484
1534 1534 1533 1532 1532 1531 1530 1528 1527 1526 1524 1522 1521 1519 1517 1516 1515 1513 1512 1510 1509 1508 1506 1505 1504 1502 1501 1500 1499 1498 1497 1496 1496 1495 1494 1493 1492 1492 1491 1491 1490 1490 1489 1487 1485 1484 1483 1482 1482 1481 1481 1480
1534 1533 1532 1531 1530 1529 1528 1527 1525 1523 1522 1519 1518 1517 1515 1513 1512 1511 1510 1508 1507 1506 1504 1503 1502 1500 1499 1498 1497 1496 1495 1494 1493 1493 1492 1491 1490 1489 1489 1489 1488 1488 1487 1485 1483 1481 1481 1481 1481 1480 1478 1477
1534 1532 1531 1530 1529 1527 1526 1525 1523 1521 1519 1517 1516 1515 1512 1511 1509 1508 1507 1506 1504 1503 1502 1501 1499 1498 1497 1495 1494 1493 1493 1492 1491 1490 1490 1488 1488 1487 1487 1486 1486 1485 1485 1483 1482 1481 1479 1478 1477 1477 1476 1475
1533 1531 1530 1529 1527 1526 1524 1523 1522 1519 1518 1515 1513 1513 1511 1508 1507 1506 1505 1503 1502 1501 1499 1498 1497 1495 1494 1493 1492 1491 1490 1490 1489 1488 1487 1487 1486 1485 1484 1483 1483 1483 1483 1482 1481 1480 1479 1477 1476 1475 1474 1474
1531 1529 1528 1527 1525 1524 1523 1521 1519 1517 1515 1513 1511 1510 1508 1507 1505 1503 1502 1501 1499 1498 1497 1496 1494 1493 1492 1491 1490 1489 1488 1487 1487 1486 1485 1485 1484 1482 1481 1480 1480 1481 1481 1481 1481 1480 1478 1477 1476 1473 1473 1473
1528 1526 1525 1524 1522 1521 1519 1517 1515 1513 1511 1510 1508 1507 1506 1504 1503 1501 1500 1499 1497 1496 1495 1493 1492 1491 1489 1488 1487 1486 1485 1485 1484 1484 1483 1482 1481 1480 1479 1478 1477 1477 1478 1479 1479 1479 1478 1477 1475 1473 1472 1470
1526 1524 1523 1521 1519 1517 1515 1514 1512 1510 1508 1507 1506 1504 1503 1502 1501 1500 1498 1497 1496 1494 1492 1491 1490 1489 1487 1486 1485 1484 1483 1482 1482 1481 1480 1479 1478 1477 1477 1476 1475 1474 1475 1476 1476 1477 1476 1476 1474 1472 1471 1470
1524 1523 1521 1519 1517 1515 1513 1511 1510 1509 1507 1505 1504 1502 1501 1500 1499 1498 1496 1494 1493 1492 1490 1488 1488 1487 1485 1484 1483 1482 1481 1480 1479 1478 1477 1476 1476 1475 1474 1474 1473 1472 1473 1473 1474 1474 1474 1473 1473 1472 1471 1469